| time (UTC) | temp F | wind direction | speed MPH | gust MPH | rain 1hr in | rain 24hr in | rain mn in | humidity % | barometer mb |
| 20260506051003 | 62 | 146 | 2.0 | 8.0 | 0.00 | 0.00 | 0.00 | 58 | 1009.9 |
| 20260506050503 | 62 | 144 | 3.0 | 8.0 | 0.00 | 0.00 | 0.00 | 57 | 1009.8 |
| 20260506045004 | 62 | 158 | 3.0 | 10.0 | 0.00 | 0.00 | 0.00 | 57 | 1009.9 |
| 20260506044503 | 62 | 158 | 3.0 | 10.0 | 0.00 | 0.00 | 0.00 | 56 | 1010.1 |
| 20260506044024 | 62 | 170 | 2.0 | 8.0 | 0.00 | 0.00 | 0.00 | 57 | 1009.9 |
| 20260506043503 | 62 | 150 | 2.0 | 6.0 | 0.00 | 0.00 | 0.00 | 56 | 1010.0 |
| 20260506043003 | 63 | 156 | 2.0 | 9.0 | 0.00 | 0.00 | 0.00 | 56 | 1010.1 |
| 20260506042503 | 63 | 162 | 2.0 | 9.0 | 0.00 | 0.00 | 0.00 | 55 | 1010.2 |
| 20260506042003 | 63 | 151 | 2.0 | 8.0 | 0.00 | 0.00 | 0.00 | 55 | 1009.9 |
| 20260506041503 | 63 | 155 | 2.0 | 10.0 | 0.00 | 0.00 | 0.00 | 55 | 1009.9 |
| 20260506041024 | 63 | 160 | 3.0 | 10.0 | 0.00 | 0.00 | 0.00 | 55 | 1010.1 |
| 20260506040503 | 63 | 164 | 3.0 | 7.0 | 0.00 | 0.00 | 0.00 | 55 | 1010.1 |
| 20260506040003 | 63 | 172 | 3.0 | 7.0 | 0.00 | 0.00 | 0.00 | 55 | 1010.2 |
| 20260506035524 | 63 | 162 | 2.0 | 6.0 | 0.00 | 0.00 | 0.00 | 55 | 1010.2 |
| 20260506035003 | 63 | 159 | 2.0 | 6.0 | 0.00 | 0.00 | 0.00 | 55 | 1010.1 |
| 20260506034503 | 63 | 162 | 2.0 | 6.0 | 0.00 | 0.00 | 0.00 | 54 | 1010.2 |
| 20260506034003 | 64 | 150 | 2.0 | 6.0 | 0.00 | 0.00 | 0.00 | 54 | 1010.2 |
| 20260506033503 | 64 | 156 | 2.0 | 8.0 | 0.00 | 0.00 | 0.00 | 53 | 1010.0 |
| 20260506033003 | 64 | 166 | 3.0 | 8.0 | 0.00 | 0.00 | 0.00 | 53 | 1010.0 |
| 20260506032503 | 64 | 167 | 4.0 | 14.0 | 0.00 | 0.00 | 0.00 | 52 | 1010.1 |
| 20260506032003 | 64 | 164 | 3.0 | 14.0 | 0.00 | 0.00 | 0.00 | 52 | 1010.0 |
| 20260506031524 | 64 | 150 | 3.0 | 8.0 | 0.00 | 0.00 | 0.00 | 52 | 1010.1 |
| 20260506031003 | 64 | 152 | 2.0 | 8.0 | 0.00 | 0.00 | 0.00 | 52 | 1010.1 |
| 20260506030524 | 64 | 162 | 2.0 | 10.0 | 0.00 | 0.00 | 0.00 | 52 | 1010.2 |
| 20260506030024 | 64 | 170 | 3.0 | 10.0 | 0.00 | 0.00 | 0.00 | 52 | 1010.0 |
| 20260506025524 | 65 | 170 | 2.0 | 9.0 | 0.00 | 0.00 | 0.00 | 51 | 1010.1 |
| 20260506025003 | 65 | 139 | 2.0 | 10.0 | 0.00 | 0.00 | 0.00 | 51 | 1010.1 |
| 20260506024503 | 65 | 133 | 3.0 | 10.0 | 0.00 | 0.00 | 0.00 | 51 | 1010.1 |
| 20260506024024 | 65 | 138 | 3.0 | 9.0 | 0.00 | 0.00 | 0.00 | 51 | 1010.2 |
| 20260506023524 | 65 | 146 | 3.0 | 9.0 | 0.00 | 0.00 | 0.00 | 51 | 1010.1 |
| 20260506023024 | 65 | 153 | 3.0 | 9.0 | 0.00 | 0.00 | 0.00 | 51 | 1010.2 |
| 20260506022524 | 65 | 180 | 3.0 | 10.0 | 0.00 | 0.00 | 0.00 | 50 | 1010.2 |
| 20260506022003 | 66 | 173 | 4.0 | 13.0 | 0.00 | 0.00 | 0.00 | 49 | 1010.2 |
| 20260506021503 | 66 | 160 | 3.0 | 13.0 | 0.00 | 0.00 | 0.00 | 49 | 1010.2 |
| 20260506021003 | 66 | 157 | 3.0 | 9.0 | 0.00 | 0.00 | 0.00 | 49 | 1010.1 |
| 20260506020503 | 66 | 163 | 2.0 | 13.0 | 0.00 | 0.00 | 0.00 | 49 | 1010.1 |
| 20260506020003 | 67 | 156 | 2.0 | 13.0 | 0.00 | 0.00 | 0.00 | 48 | 1010.2 |
| 20260506015503 | 67 | 156 | 3.0 | 14.0 | 0.00 | 0.00 | 0.00 | 48 | 1010.2 |
| 20260506015003 | 67 | 182 | 3.0 | 14.0 | 0.00 | 0.00 | 0.00 | 48 | 1010.1 |
| 20260506014524 | 67 | 191 | 2.0 | 11.0 | 0.00 | 0.00 | 0.00 | 47 | 1009.9 |
| 20260506014003 | 67 | 165 | 2.0 | 10.0 | 0.00 | 0.00 | 0.00 | 47 | 1009.9 |
| 20260506013503 | 67 | 168 | 3.0 | 10.0 | 0.00 | 0.00 | 0.00 | 47 | 1009.9 |
| 20260506013003 | 68 | 171 | 3.0 | 8.0 | 0.00 | 0.00 | 0.00 | 46 | 1010.0 |
| 20260506012503 | 68 | 171 | 4.0 | 8.0 | 0.00 | 0.00 | 0.00 | 47 | 1009.7 |
| 20260506012003 | 68 | 169 | 3.0 | 9.0 | 0.00 | 0.00 | 0.00 | 46 | 1009.7 |
| 20260506011503 | 68 | 168 | 3.0 | 11.0 | 0.00 | 0.00 | 0.00 | 46 | 1009.8 |
| 20260506011003 | 68 | 173 | 3.0 | 11.0 | 0.00 | 0.00 | 0.00 | 45 | 1009.9 |
| 20260506010524 | 68 | 162 | 3.0 | 11.0 | 0.00 | 0.00 | 0.00 | 45 | 1009.6 |
| 20260506010003 | 68 | 164 | 4.0 | 14.0 | 0.00 | 0.00 | 0.00 | 44 | 1009.5 |
| 20260506005503 | 68 | 185 | 5.0 | 14.0 | 0.00 | 0.00 | 0.00 | 44 | 1009.4 |
| 20260506005024 | 68 | 205 | 4.0 | 13.0 | 0.00 | 0.00 | 0.00 | 44 | 1009.3 |
| 20260506004503 | 69 | 195 | 4.0 | 15.0 | 0.00 | 0.00 | 0.00 | 44 | 1009.3 |
| 20260506004003 | 69 | 175 | 4.0 | 15.0 | 0.00 | 0.00 | 0.00 | 44 | 1009.5 |
| 20260506003503 | 69 | 155 | 3.0 | 11.0 | 0.00 | 0.00 | 0.00 | 44 | 1009.3 |
| 20260506003003 | 69 | 152 | 2.0 | 11.0 | 0.00 | 0.00 | 0.00 | 44 | 1009.5 |
| 20260506002503 | 69 | 170 | 2.0 | 10.0 | 0.00 | 0.00 | 0.00 | 44 | 1009.2 |
| 20260506002024 | 69 | 173 | 3.0 | 11.0 | 0.00 | 0.00 | 0.00 | 44 | 1009.3 |
| 20260506001503 | 69 | 166 | 3.0 | 14.0 | 0.00 | 0.00 | 0.00 | 44 | 1009.0 |
| 20260506001003 | 69 | 165 | 3.0 | 14.0 | 0.00 | 0.00 | 0.00 | 44 | 1009.2 |
| 20260506000503 | 69 | 167 | 3.0 | 11.0 | 0.00 | 0.00 | 0.00 | 44 | 1009.3 |
| 20260506000003 | 69 | 166 | 2.0 | 9.0 | 0.00 | 0.00 | 0.00 | 44 | 1009.2 |
| 20260505235503 | 69 | 196 | 2.0 | 15.0 | 0.00 | 0.00 | 0.00 | 44 | 1009.2 |
| 20260505235003 | 70 | 194 | 3.0 | 15.0 | 0.00 | 0.00 | 0.00 | 44 | 1009.2 |
| 20260505234503 | 70 | 183 | 3.0 | 11.0 | 0.00 | 0.00 | 0.00 | 44 | 1009.3 |
| 20260505234003 | 70 | 180 | 4.0 | 13.0 | 0.00 | 0.00 | 0.00 | 44 | 1009.0 |
| 20260505233503 | 70 | 179 | 4.0 | 15.0 | 0.00 | 0.00 | 0.00 | 44 | 1009.1 |
| 20260505233003 | 70 | 179 | 3.0 | 17.0 | 0.00 | 0.00 | 0.00 | 44 | 1008.9 |
| 20260505232524 | 70 | 178 | 2.0 | 17.0 | 0.00 | 0.00 | 0.00 | 44 | 1009.2 |
| 20260505232024 | 70 | 166 | 2.0 | 8.0 | 0.00 | 0.00 | 0.00 | 43 | 1009.1 |
| 20260505231524 | 70 | 172 | 3.0 | 15.0 | 0.00 | 0.00 | 0.00 | 43 | 1009.1 |
| 20260505231003 | 70 | 182 | 2.0 | 15.0 | 0.00 | 0.00 | 0.00 | 43 | 1009.0 |
| 20260505230524 | 70 | 183 | 2.0 | 7.0 | 0.00 | 0.00 | 0.00 | 42 | 1009.0 |
| 20260505230003 | 70 | 172 | 3.0 | 9.0 | 0.00 | 0.00 | 0.00 | 42 | 1009.0 |
| 20260505225503 | 70 | 168 | 3.0 | 9.0 | 0.00 | 0.00 | 0.00 | 42 | 1008.9 |
| 20260505225003 | 70 | 167 | 3.0 | 13.0 | 0.00 | 0.00 | 0.00 | 42 | 1008.9 |
| 20260505224503 | 71 | 176 | 3.0 | 13.0 | 0.00 | 0.00 | 0.00 | 42 | 1008.7 |
| 20260505224003 | 71 | 191 | 3.0 | 16.0 | 0.00 | 0.00 | 0.00 | 42 | 1008.9 |
| 20260505223503 | 71 | 184 | 4.0 | 16.0 | 0.00 | 0.00 | 0.00 | 42 | 1008.9 |
| 20260505223024 | 71 | 180 | 5.0 | 14.0 | 0.00 | 0.00 | 0.00 | 42 | 1008.8 |
| 20260505222503 | 71 | 182 | 4.0 | 14.0 | 0.00 | 0.00 | 0.00 | 42 | 1008.7 |
| 20260505222024 | 71 | 195 | 4.0 | 13.0 | 0.00 | 0.00 | 0.00 | 42 | 1008.7 |
| 20260505221503 | 71 | 204 | 3.0 | 11.0 | 0.00 | 0.00 | 0.00 | 42 | 1008.6 |
| 20260505221003 | 71 | 183 | 3.0 | 14.0 | 0.00 | 0.00 | 0.00 | 42 | 1008.4 |
| 20260505220503 | 71 | 178 | 5.0 | 14.0 | 0.00 | 0.00 | 0.00 | 42 | 1008.8 |
| 20260505220024 | 71 | 180 | 5.0 | 14.0 | 0.00 | 0.00 | 0.00 | 41 | 1009.0 |
| 20260505215503 | 71 | 176 | 5.0 | 15.0 | 0.00 | 0.00 | 0.00 | 41 | 1008.6 |
| 20260505215003 | 71 | 165 | 4.0 | 15.0 | 0.00 | 0.00 | 0.00 | 42 | 1008.7 |
| 20260505214503 | 71 | 184 | 3.0 | 13.0 | 0.00 | 0.00 | 0.00 | 41 | 1008.6 |
| 20260505214003 | 72 | 175 | 3.0 | 15.0 | 0.00 | 0.00 | 0.00 | 41 | 1008.6 |
| 20260505213503 | 72 | 175 | 5.0 | 16.0 | 0.00 | 0.00 | 0.00 | 41 | 1008.4 |
| 20260505213003 | 72 | 186 | 6.0 | 22.0 | 0.00 | 0.00 | 0.00 | 42 | 1008.4 |
| 20260505212503 | 72 | 179 | 5.0 | 22.0 | 0.00 | 0.00 | 0.00 | 41 | 1008.2 |
| 20260505212003 | 72 | 175 | 6.0 | 17.0 | 0.00 | 0.00 | 0.00 | 40 | 1008.5 |
| 20260505211503 | 73 | 184 | 6.0 | 17.0 | 0.00 | 0.00 | 0.00 | 39 | 1008.4 |
| 20260505211003 | 73 | 207 | 6.0 | 25.0 | 0.00 | 0.00 | 0.00 | 36 | 1008.2 |
| 20260505210503 | 73 | 220 | 6.0 | 25.0 | 0.00 | 0.00 | 0.00 | 35 | 1007.9 |
| 20260505210003 | 73 | 210 | 5.0 | 22.0 | 0.00 | 0.00 | 0.00 | 35 | 1008.2 |
| 20260505205503 | 73 | 176 | 6.0 | 18.0 | 0.00 | 0.00 | 0.00 | 35 | 1008.2 |
| 20260505205003 | 73 | 168 | 5.0 | 18.0 | 0.00 | 0.00 | 0.00 | 35 | 1008.2 |
| 20260505204503 | 74 | 180 | 6.0 | 21.0 | 0.00 | 0.00 | 0.00 | 35 | 1008.0 |
| 20260505204003 | 74 | 188 | 7.0 | 21.0 | 0.00 | 0.00 | 0.00 | 34 | 1008.0 |
| 20260505203524 | 74 | 194 | 5.0 | 17.0 | 0.00 | 0.00 | 0.00 | 34 | 1008.1 |
| 20260505203003 | 74 | 176 | 5.0 | 14.0 | 0.00 | 0.00 | 0.00 | 37 | 1008.3 |
| 20260505202503 | 73 | 163 | 6.0 | 27.0 | 0.00 | 0.00 | 0.00 | 35 | 1008.1 |
| 20260505202003 | 74 | 166 | 8.0 | 27.0 | 0.00 | 0.00 | 0.00 | 34 | 1008.3 |
| 20260505201503 | 74 | 159 | 7.0 | 19.0 | 0.00 | 0.00 | 0.00 | 34 | 1008.1 |
| 20260505201024 | 73 | 185 | 7.0 | 22.0 | 0.00 | 0.00 | 0.00 | 34 | 1008.2 |
| 20260505200503 | 74 | 191 | 7.0 | 22.0 | 0.00 | 0.00 | 0.00 | 35 | 1008.1 |
| 20260505200003 | 74 | 166 | 7.0 | 17.0 | 0.00 | 0.00 | 0.00 | 34 | 1008.4 |
| 20260505195503 | 75 | 179 | 7.0 | 18.0 | 0.00 | 0.00 | 0.00 | 35 | 1008.3 |
| 20260505195003 | 75 | 198 | 6.0 | 18.0 | 0.00 | 0.00 | 0.00 | 35 | 1008.4 |
| 20260505194524 | 75 | 201 | 6.0 | 24.0 | 0.00 | 0.00 | 0.00 | 36 | 1008.5 |
| 20260505194003 | 74 | 202 | 7.0 | 26.0 | 0.00 | 0.00 | 0.00 | 36 | 1008.5 |
| 20260505193503 | 74 | 204 | 7.0 | 26.0 | 0.00 | 0.00 | 0.00 | 37 | 1008.3 |
| 20260505193003 | 74 | 192 | 7.0 | 27.0 | 0.00 | 0.00 | 0.00 | 35 | 1008.7 |
| 20260505192503 | 74 | 173 | 8.0 | 27.0 | 0.00 | 0.00 | 0.00 | 35 | 1008.5 |
| 20260505192024 | 74 | 164 | 8.0 | 27.0 | 0.00 | 0.00 | 0.00 | 35 | 1008.8 |
| 20260505191503 | 74 | 169 | 8.0 | 22.0 | 0.00 | 0.00 | 0.00 | 36 | 1008.5 |
| 20260505191024 | 74 | 171 | 8.0 | 21.0 | 0.00 | 0.00 | 0.00 | 35 | 1008.7 |
| 20260505190503 | 74 | 170 | 8.0 | 22.0 | 0.00 | 0.00 | 0.00 | 34 | 1008.7 |
| 20260505190003 | 74 | 169 | 7.0 | 22.0 | 0.00 | 0.00 | 0.00 | 37 | 1008.7 |
| 20260505185503 | 75 | 169 | 7.0 | 22.0 | 0.00 | 0.00 | 0.00 | 36 | 1008.8 |
| 20260505185003 | 74 | 182 | 8.0 | 22.0 | 0.00 | 0.00 | 0.00 | 35 | 1008.7 |
| 20260505184503 | 74 | 186 | 8.0 | 25.0 | 0.00 | 0.00 | 0.00 | 36 | 1008.8 |
| 20260505184003 | 74 | 171 | 8.0 | 26.0 | 0.00 | 0.00 | 0.00 | 35 | 1009.0 |
| 20260505183503 | 74 | 185 | 7.0 | 26.0 | 0.00 | 0.00 | 0.00 | 36 | 1009.2 |
| 20260505183024 | 75 | 211 | 5.0 | 17.0 | 0.00 | 0.00 | 0.00 | 38 | 1009.6 |
| 20260505182503 | 75 | 179 | 6.0 | 22.0 | 0.00 | 0.00 | 0.00 | 38 | 1009.5 |
| 20260505182024 | 75 | 155 | 7.0 | 22.0 | 0.00 | 0.00 | 0.00 | 38 | 1009.5 |
| 20260505181503 | 75 | 175 | 6.0 | 18.0 | 0.00 | 0.00 | 0.00 | 39 | 1009.2 |
| 20260505181003 | 75 | 197 | 6.0 | 18.0 | 0.00 | 0.00 | 0.00 | 40 | 1009.4 |
| 20260505180503 | 75 | 174 | 5.0 | 17.0 | 0.00 | 0.00 | 0.00 | 39 | 1009.4 |
| 20260505180003 | 75 | 198 | 5.0 | 33.0 | 0.00 | 0.00 | 0.00 | 40 | 1009.3 |
| 20260505175524 | 74 | 204 | 7.0 | 33.0 | 0.00 | 0.00 | 0.00 | 39 | 1009.3 |
| 20260505175003 | 74 | 187 | 7.0 | 33.0 | 0.00 | 0.00 | 0.00 | 38 | 1009.6 |
| 20260505174503 | 74 | 190 | 6.0 | 24.0 | 0.00 | 0.00 | 0.00 | 39 | 1009.2 |
| 20260505174004 | 74 | 218 | 6.0 | 24.0 | 0.00 | 0.00 | 0.00 | 36 | 1009.3 |
| 20260505173503 | 74 | 237 | 6.0 | 24.0 | 0.00 | 0.00 | 0.00 | 39 | 1009.5 |
| 20260505173003 | 74 | 214 | 7.0 | 25.0 | 0.00 | 0.00 | 0.00 | 38 | 1009.7 |
| 20260505172524 | 74 | 205 | 7.0 | 25.0 | 0.00 | 0.00 | 0.00 | 39 | 1009.5 |
| 20260505172003 | 74 | 189 | 8.0 | 19.0 | 0.00 | 0.00 | 0.00 | 37 | 1009.6 |
| 20260505171503 | 74 | 207 | 6.0 | 19.0 | 0.00 | 0.00 | 0.00 | 39 | 1009.5 |
| 20260505171003 | 74 | 228 | 6.0 | 25.0 | 0.00 | 0.00 | 0.00 | 39 | 1009.7 |
| 20260505170503 | 74 | 204 | 6.0 | 25.0 | 0.00 | 0.00 | 0.00 | 39 | 1009.7 |
| 20260505170003 | 74 | 200 | 7.0 | 21.0 | 0.00 | 0.00 | 0.00 | 39 | 1009.5 |
| 20260505165503 | 74 | 193 | 8.0 | 26.0 | 0.00 | 0.00 | 0.00 | 37 | 1009.5 |
| 20260505165003 | 74 | 198 | 7.0 | 26.0 | 0.00 | 0.00 | 0.00 | 41 | 1009.7 |
| 20260505164503 | 74 | 188 | 6.0 | 17.0 | 0.00 | 0.00 | 0.00 | 41 | 1009.7 |
| 20260505164003 | 73 | 190 | 7.0 | 23.0 | 0.00 | 0.00 | 0.00 | 43 | 1009.9 |
| 20260505163503 | 73 | 211 | 6.0 | 23.0 | 0.00 | 0.00 | 0.00 | 43 | 1009.7 |
| 20260505163003 | 74 | 217 | 5.0 | 17.0 | 0.00 | 0.00 | 0.00 | 43 | 1009.9 |
| 20260505162503 | 74 | 238 | 4.0 | 17.0 | 0.00 | 0.00 | 0.00 | 43 | 1010.0 |
| 20260505162024 | 74 | 258 | 5.0 | 17.0 | 0.00 | 0.00 | 0.00 | 43 | 1009.9 |
| 20260505161524 | 74 | 241 | 5.0 | 24.0 | 0.00 | 0.00 | 0.00 | 45 | 1010.0 |
| 20260505161003 | 73 | 226 | 6.0 | 24.0 | 0.00 | 0.00 | 0.00 | 45 | 1010.1 |
| 20260505160503 | 73 | 210 | 6.0 | 19.0 | 0.00 | 0.00 | 0.00 | 44 | 1010.4 |
| 20260505153003 | 71 | 249 | 5.0 | 16.0 | 0.00 | 0.00 | 0.00 | 48 | 1010.5 |
| 20260505152503 | 71 | 213 | 6.0 | 19.0 | 0.00 | 0.00 | 0.00 | 48 | 1010.4 |
| 20260505152003 | 71 | 207 | 6.0 | 19.0 | 0.00 | 0.00 | 0.00 | 49 | 1010.5 |
| 20260505151503 | 71 | 213 | 5.0 | 13.0 | 0.00 | 0.00 | 0.00 | 48 | 1010.5 |
| 20260505151024 | 71 | 190 | 5.0 | 16.0 | 0.00 | 0.00 | 0.00 | 50 | 1010.7 |
| 20260505150524 | 71 | 209 | 4.0 | 16.0 | 0.00 | 0.00 | 0.00 | 47 | 1010.4 |
| 20260505140503 | 69 | 225 | 4.0 | 14.0 | 0.00 | 0.00 | 0.00 | 51 | 1010.7 |
| 20260505125003 | 64 | 223 | 4.0 | 16.0 | 0.00 | 0.00 | 0.00 | 58 | 1010.5 |
| 20260505124503 | 63 | 213 | 5.0 | 16.0 | 0.00 | 0.00 | 0.00 | 58 | 1010.6 |
| 20260505124024 | 63 | 215 | 4.0 | 15.0 | 0.00 | 0.00 | 0.00 | 58 | 1010.4 |
| 20260505123503 | 62 | 224 | 4.0 | 14.0 | 0.00 | 0.00 | 0.00 | 60 | 1010.6 |
| 20260505123003 | 62 | 230 | 4.0 | 14.0 | 0.00 | 0.00 | 0.00 | 60 | 1010.5 |
| 20260505122503 | 62 | 220 | 3.0 | 10.0 | 0.00 | 0.00 | 0.00 | 61 | 1010.7 |
| 20260505122003 | 61 | 192 | 3.0 | 10.0 | 0.00 | 0.00 | 0.00 | 62 | 1010.4 |
| 20260505121503 | 61 | 217 | 3.0 | 10.0 | 0.00 | 0.00 | 0.00 | 62 | 1010.6 |
| 20260505121003 | 60 | 223 | 4.0 | 11.0 | 0.00 | 0.00 | 0.00 | 63 | 1010.6 |
| 20260505120503 | 60 | 222 | 3.0 | 11.0 | 0.00 | 0.00 | 0.00 | 63 | 1010.5 |
| 20260505120003 | 60 | 185 | 3.0 | 15.0 | 0.00 | 0.00 | 0.00 | 63 | 1010.6 |
| 20260505115503 | 60 | 193 | 3.0 | 15.0 | 0.00 | 0.00 | 0.00 | 63 | 1010.6 |
| 20260505115003 | 59 | 209 | 3.0 | 15.0 | 0.00 | 0.00 | 0.00 | 64 | 1010.8 |
| 20260505114524 | 59 | 244 | 2.0 | 10.0 | 0.00 | 0.00 | 0.00 | 65 | 1010.5 |
| 20260505114003 | 59 | 265 | 2.0 | 10.0 | 0.00 | 0.00 | 0.00 | 66 | 1010.4 |
| 20260505113503 | 58 | 247 | 2.0 | 11.0 | 0.00 | 0.00 | 0.00 | 66 | 1010.5 |
| 20260505113003 | 58 | 212 | 3.0 | 11.0 | 0.00 | 0.00 | 0.00 | 66 | 1010.6 |
| 20260505112503 | 58 | 206 | 3.0 | 11.0 | 0.00 | 0.00 | 0.00 | 67 | 1010.3 |
| 20260505112003 | 58 | 205 | 2.0 | 7.0 | 0.00 | 0.00 | 0.00 | 67 | 1010.3 |
| 20260505111503 | 58 | 186 | 3.0 | 11.0 | 0.00 | 0.00 | 0.00 | 68 | 1010.3 |
| 20260505111003 | 58 | 184 | 4.0 | 11.0 | 0.00 | 0.00 | 0.00 | 68 | 1010.3 |
| 20260505110503 | 57 | 183 | 3.0 | 10.0 | 0.00 | 0.00 | 0.00 | 69 | 1010.3 |
| 20260505102003 | 55 | 65 | 0.0 | 2.0 | 0.00 | 0.00 | 0.00 | 73 | 1010.1 |
| 20260505101503 | 55 | 94 | 0.0 | 2.0 | 0.00 | 0.00 | 0.00 | 73 | 1010.0 |
| 20260505101024 | 55 | 87 | 0.0 | 2.0 | 0.00 | 0.00 | 0.00 | 72 | 1010.1 |
| 20260505100524 | 54 | 87 | 0.0 | 2.0 | 0.00 | 0.00 | 0.00 | 74 | 1010.0 |
| 20260505100003 | 54 | 87 | 0.0 | 2.0 | 0.00 | 0.00 | 0.00 | 72 | 1010.1 |
| 20260505095503 | 55 | 98 | 1.0 | 2.0 | 0.00 | 0.00 | 0.00 | 71 | 1010.1 |
| 20260505095003 | 55 | 111 | 1.0 | 2.0 | 0.00 | 0.00 | 0.00 | 71 | 1009.9 |
| 20260505094503 | 55 | 114 | 1.0 | 2.0 | 0.00 | 0.00 | 0.00 | 72 | 1009.9 |
| 20260505094003 | 55 | 123 | 1.0 | 3.0 | 0.00 | 0.00 | 0.00 | 72 | 1009.9 |
| 20260505093503 | 56 | 144 | 2.0 | 6.0 | 0.00 | 0.00 | 0.00 | 72 | 1009.9 |
| 20260505093004 | 56 | 170 | 2.0 | 7.0 | 0.00 | 0.00 | 0.00 | 72 | 1010.1 |
| 20260505092503 | 56 | 194 | 2.0 | 7.0 | 0.00 | 0.00 | 0.00 | 72 | 1009.9 |
| 20260505092024 | 56 | 192 | 1.0 | 8.0 | 0.00 | 0.00 | 0.00 | 69 | 1010.0 |
| 20260505091503 | 56 | 172 | 1.0 | 8.0 | 0.00 | 0.00 | 0.00 | 69 | 1009.8 |
| 20260505091004 | 56 | 153 | 2.0 | 8.0 | 0.00 | 0.00 | 0.00 | 69 | 1009.6 |
| 20260505090503 | 57 | 156 | 3.0 | 8.0 | 0.00 | 0.00 | 0.00 | 67 | 1009.8 |
| 20260505090024 | 57 | 182 | 4.0 | 15.0 | 0.00 | 0.00 | 0.00 | 66 | 1009.8 |
| 20260505085503 | 57 | 194 | 5.0 | 16.0 | 0.00 | 0.00 | 0.00 | 64 | 1009.9 |
| 20260505085003 | 57 | 213 | 3.0 | 16.0 | 0.00 | 0.00 | 0.00 | 65 | 1010.2 |
| 20260505084503 | 56 | 236 | 2.0 | 7.0 | 0.00 | 0.00 | 0.00 | 65 | 1010.1 |
| 20260505084024 | 56 | 221 | 2.0 | 7.0 | 0.00 | 0.00 | 0.00 | 65 | 1010.0 |
| 20260505083503 | 56 | 256 | 2.0 | 8.0 | 0.00 | 0.00 | 0.00 | 65 | 1009.9 |
| 20260505083003 | 56 | 250 | 2.0 | 8.0 | 0.00 | 0.00 | 0.00 | 65 | 1010.0 |
| 20260505082503 | 56 | 234 | 2.0 | 8.0 | 0.00 | 0.00 | 0.00 | 65 | 1010.1 |
| 20260505082003 | 56 | 185 | 1.0 | 6.0 | 0.00 | 0.00 | 0.00 | 65 | 1009.8 |
| 20260505081503 | 56 | 181 | 2.0 | 7.0 | 0.00 | 0.00 | 0.00 | 65 | 1009.9 |
| 20260505081003 | 56 | 195 | 2.0 | 7.0 | 0.00 | 0.00 | 0.00 | 65 | 1009.7 |
| 20260505080503 | 56 | 197 | 2.0 | 7.0 | 0.00 | 0.00 | 0.00 | 65 | 1009.8 |
| 20260505080024 | 56 | 181 | 2.0 | 6.0 | 0.00 | 0.00 | 0.00 | 65 | 1009.5 |
| 20260505075503 | 56 | 172 | 2.0 | 9.0 | 0.00 | 0.00 | 0.00 | 65 | 1009.5 |
| 20260505075003 | 56 | 187 | 2.0 | 9.0 | 0.00 | 0.00 | 0.00 | 64 | 1009.7 |
| 20260505074503 | 56 | 186 | 2.0 | 6.0 | 0.00 | 0.00 | 0.00 | 64 | 1009.7 |
| 20260505074003 | 56 | 156 | 1.0 | 6.0 | 0.00 | 0.00 | 0.00 | 63 | 1009.7 |
| 20260505073503 | 56 | 162 | 1.0 | 4.0 | 0.00 | 0.00 | 0.00 | 63 | 1009.5 |
| 20260505073003 | 56 | 189 | 2.0 | 7.0 | 0.00 | 0.00 | 0.00 | 63 | 1009.6 |
| 20260505072503 | 56 | 192 | 2.0 | 8.0 | 0.00 | 0.00 | 0.00 | 63 | 1009.7 |
| 20260505072003 | 56 | 179 | 1.0 | 8.0 | 0.00 | 0.00 | 0.00 | 62 | 1009.6 |
| 20260505071503 | 56 | 209 | 1.0 | 6.0 | 0.00 | 0.00 | 0.00 | 62 | 1009.7 |
| 20260505071003 | 57 | 232 | 2.0 | 9.0 | 0.00 | 0.00 | 0.00 | 62 | 1009.9 |
| 20260505070503 | 56 | 241 | 2.0 | 9.0 | 0.00 | 0.00 | 0.00 | 61 | 1009.7 |
| 20260505070003 | 57 | 240 | 2.0 | 8.0 | 0.00 | 0.00 | 0.00 | 61 | 1009.5 |
| 20260505065503 | 57 | 221 | 2.0 | 7.0 | 0.00 | 0.00 | 0.00 | 61 | 1009.7 |
| 20260505065024 | 57 | 204 | 2.0 | 7.0 | 0.00 | 0.00 | 0.00 | 61 | 1009.6 |
| 20260505064524 | 56 | 206 | 3.0 | 15.0 | 0.00 | 0.00 | 0.00 | 61 | 1009.8 |
| 20260505064024 | 56 | 207 | 3.0 | 15.0 | 0.00 | 0.00 | 0.00 | 61 | 1009.7 |
| 20260505063524 | 56 | 212 | 3.0 | 11.0 | 0.00 | 0.00 | 0.00 | 61 | 1009.8 |
| 20260505063003 | 56 | 226 | 3.0 | 11.0 | 0.00 | 0.00 | 0.00 | 61 | 1009.8 |
| 20260505062503 | 56 | 212 | 3.0 | 11.0 | 0.00 | 0.00 | 0.00 | 61 | 1009.6 |
| 20260505062003 | 56 | 209 | 3.0 | 11.0 | 0.00 | 0.00 | 0.00 | 61 | 1009.9 |
| 20260505061503 | 56 | 210 | 2.0 | 11.0 | 0.00 | 0.00 | 0.00 | 60 | 1010.0 |
| 20260505061003 | 56 | 191 | 2.0 | 10.0 | 0.00 | 0.00 | 0.00 | 60 | 1009.8 |
| 20260505060503 | 56 | 180 | 3.0 | 10.0 | 0.00 | 0.00 | 0.00 | 60 | 1009.8 |
| 20260505060003 | 56 | 169 | 2.0 | 8.0 | 0.00 | 0.00 | 0.00 | 60 | 1009.9 |
| 20260505055503 | 56 | 190 | 2.0 | 8.0 | 0.00 | 0.00 | 0.00 | 59 | 1009.9 |
| 20260505055003 | 56 | 179 | 3.0 | 11.0 | 0.00 | 0.00 | 0.00 | 59 | 1009.9 |